Miscellaneous Local Product
Issued by NWS Hastings, NE

Home | Current Version | Previous Version | Graphics & Text | Print | Product List | Glossary On
Versions: 1 2 3 4 5 6 7 8 9 10 11 12 13 14 15 16 17 18 19 20 21 22 23 24 25 26 27 28 29 30 31 32 33 34 35 36 37 38 39 40 41 42 43 44 45 46 47 48 49 50
439
AXUS43 KGID 250902
MISGRI

GID CWA HOURLY WEATHER ROUNDUP
NATIONAL WEATHER SERVICE HASTINGS NE
300 AM CST SAT FEB 25 2017

NOTE: "FAIR" INDICATES FEW OR NO CLOUDS BELOW 12,000 FEET WITH NO
SIGNIFICANT WEATHER AND/OR OBSTRUCTIONS TO VISIBILITY.

...SOUTH CENTRAL NEBRASKA...

CITY           SKY/WX    TMP DP  RH WIND       PRES   REMARKS
GRAND ISLAND   CLOUDY    13   9  84 W10       30.13S WCI   0
HASTINGS       CLOUDY    14   9  80 W9        30.14S WCI   2
KEARNEY        CLOUDY    16   9  73 W7        30.14S WCI   6
ORD            CLOUDY     6   2  83 NW3       30.11S
YORK           CLEAR     14   9  79 NW10      30.11F WCI   1
AURORA         CLOUDY    14  10  84 NW8       30.11F WCI   3
LEXINGTON      CLEAR     12   6  79 W7        30.13F WCI   1
HOLDREGE       CLOUDY    14   9  81 W3        30.13F
HEBRON         CLEAR     17  12  82 NW8       30.13F WCI   6

...NEBRASKA PANHANDLE...

CITY           SKY/WX    TMP DP  RH WIND       PRES   REMARKS
CHADRON        PTCLDY     3  -2  79 CALM      30.01F
ALLIANCE       FOG       -7 -10  87 W6        29.99F VSB 1/4 WCI -20
SCOTTSBLUFF    CLOUDY     3  -1  83 CALM      30.00F
SIDNEY         CLEAR      4   0  83 W8        30.00F WCI  -9

...WESTERN AND NORTH CENTRAL NEBRASKA...

CITY           SKY/WX    TMP DP  RH WIND       PRES   REMARKS
VALENTINE      CLOUDY     2  -1  88 W3        30.06F
AINSWORTH      CLOUDY     4   2  88 SW6       30.06F WCI  -6
ONEILL         CLOUDY    10   7  85 W8        30.09F WCI  -2
BROKEN BOW     CLOUDY    14   8  77 NW8       30.09F WCI   3
IMPERIAL       CLEAR     11   7  84 SW3       30.09F
NORTH PLATTE   CLOUDY     7   2  80 CALM      30.10F
MCCOOK         CLEAR     11   9  92 W6        30.14F WCI   1

...EASTERN NEBRASKA...

CITY           SKY/WX    TMP DP  RH WIND       PRES   REMARKS
NORFOLK        CLOUDY    15   8  73 NW8       30.09S WCI   4
SO SIOUX CITY  CLEAR     21  14  74 NW15      30.08F WCI   8
TEKAMAH        CLOUDY    19  12  74 N10       30.09F WCI   7
COLUMBUS       CLEAR     19  10  68 NW14      30.10S WCI   6
ALBION         CLOUDY    14   8  75 NW6       30.10S WCI   5
OMAHA EPPLEY   CLEAR     19  12  74 NW15      30.09R WCI   5
OFFUTT AFB     CLEAR     20  13  74 NW10      30.08F WCI   8
MILLARD        CLEAR     23  17  76 NW9       30.10S WCI  13
LINCOLN        CLEAR     22  14  71 N9        30.12R WCI  12
NEBRASKA CITY  CLEAR     22  13  70 N12       30.08F WCI  10
BEATRICE       CLEAR     16  13  88 NW7       30.12S WCI   6
FALLS CITY     CLEAR     22  16  78 NW7       30.10R WCI  13

...NORTHERN KANSAS...

CITY           SKY/WX    TMP DP  RH WIND       PRES   REMARKS
GOODLAND       CLEAR     10   5  80 SW5       30.08F WCI   2
HILL CITY      CLEAR     14  10  84 W7        30.17F WCI   4
PHILLIPSBURG   CLEAR     18  12  79 NW9       30.18F WCI   6
SMITH CENTER   CLEAR     12  10  92 W6        30.18S WCI   3
HAYS           CLEAR     15  11  83 NW9       30.18F WCI   3
RUSSELL        CLEAR     16  11  80 NW10      30.17F WCI   4
CONCORDIA      CLEAR     19  13  77 W13       30.15S WCI   6
SALINA         CLEAR     21  14  74 W12       30.18S WCI   9
TOPEKA         CLEAR     24  18  77 W7        30.12S WCI  16



USA.gov is the U.S. government's official web portal to all federal, state and local government web resources and services.